When you browse on this site, cookies collect data to enhance your experience and personalize the content and advertising you see.
Visit our Privacy Policy to learn more. By continuing to use the site, you agree to this use of cookies and data.
  • In Deutschland
  • Länderverzeichnis
  • Für 7 Tage
  • Wassertemperatur
  • Satellitenkarten
  • Wetterkarte
  • Widgets
  • user-avatar
    Anmelden

    Stündliche Wetter La Rioja

    Heute, 25 April, Donnerstag

    Zeit Temperatur Niederschläge Wind Luftdruck Luftfeuchtigkeit
    00:00 +15°C° 0 mm 1 m/S 717 mmHg 89%
    01:00 +14°C° 0 mm 1 m/S 717 mmHg 89%
    02:00 +13°C° 0 mm 0 m/S 717 mmHg 89%
    03:00 +13°C° 0 mm 0 m/S 717 mmHg 90%
    04:00 +13°C° 0 mm 0 m/S 717 mmHg 90%
    05:00 +13°C° 0 mm 0 m/S 716 mmHg 90%
    06:00 +14°C° 0 mm 0 m/S 717 mmHg 86%
    07:00 +15°C° 0 mm 0 m/S 717 mmHg 82%
    08:00 +16°C° 0 mm 0 m/S 717 mmHg 78%
    09:00 +19°C° 0 mm 1 m/S 717 mmHg 73%
    10:00 +19°C° 0 mm 2 m/S 718 mmHg 68%
    11:00 +21°C° 0 mm 2 m/S 718 mmHg 63%
    12:00 +22°C° 0 mm 3 m/S 717 mmHg 61%
    13:00 +22°C° 0 mm 3 m/S 716 mmHg 58%
    14:00 +24°C° 0 mm 3 m/S 716 mmHg 55%
    15:00 +24°C° 0 mm 3 m/S 715 mmHg 57%
    16:00 +24°C° 0 mm 3 m/S 715 mmHg 58%
    17:00 +24°C° 0 mm 2 m/S 715 mmHg 59%
    18:00 +21°C° 0 mm 2 m/S 715 mmHg 65%
    19:00 +21°C° 0 mm 1 m/S 716 mmHg 71%
    20:00 +19°C° 0 mm 1 m/S 717 mmHg 77%
    21:00 +19°C° 0 mm 1 m/S 717 mmHg 78%
    22:00 +19°C° 0 mm 1 m/S 717 mmHg 78%
    23:00 +19°C° 0 mm 1 m/S 718 mmHg 78%

    Morgen, 26 April, Freitag

    Zeit Temperatur Niederschläge Wind Luftdruck Luftfeuchtigkeit
    00:00 +19°C° 0 mm 1 m/S 718 mmHg 80%
    01:00 +18°C° 0 mm 1 m/S 718 mmHg 81%
    02:00 +18°C° 0 mm 1 m/S 717 mmHg 82%
    03:00 +18°C° 0 mm 1 m/S 717 mmHg 82%
    04:00 +18°C° 0 mm 1 m/S 717 mmHg 81%
    05:00 +18°C° 0 mm 1 m/S 717 mmHg 80%
    06:00 +19°C° 0 mm 1 m/S 717 mmHg 76%
    07:00 +19°C° 0 mm 1 m/S 718 mmHg 73%
    08:00 +20°C° 0 mm 1 m/S 718 mmHg 69%
    09:00 +22°C° 0 mm 1 m/S 718 mmHg 64%
    10:00 +23°C° 0 mm 2 m/S 718 mmHg 59%
    11:00 +25°C° 0 mm 2 m/S 718 mmHg 54%
    12:00 +25°C° 0 mm 2 m/S 718 mmHg 51%
    13:00 +26°C° 0 mm 3 m/S 717 mmHg 49%
    14:00 +27°C° 0 mm 3 m/S 716 mmHg 46%
    15:00 +26°C° 0 mm 2 m/S 716 mmHg 46%
    16:00 +26°C° 0 mm 2 m/S 716 mmHg 46%
    17:00 +26°C° 0 mm 2 m/S 716 mmHg 46%
    18:00 +24°C° 0 mm 2 m/S 716 mmHg 52%
    19:00 +22°C° 0 mm 1 m/S 716 mmHg 59%
    20:00 +21°C° 0 mm 1 m/S 717 mmHg 66%
    21:00 +20°C° 0 mm 1 m/S 717 mmHg 68%
    22:00 +20°C° 0 mm 1 m/S 717 mmHg 69%
    23:00 +20°C° 0 mm 1 m/S 717 mmHg 71%

    übermorgen, 27 April, Samstag

    Zeit Temperatur Niederschläge Wind Luftdruck Luftfeuchtigkeit
    00:00 +17°C° 0 mm 0 m/S 717 mmHg 73%
    01:00 +17°C° 0 mm 0 m/S 717 mmHg 75%
    02:00 +16°C° 0 mm 0 m/S 716 mmHg 77%
    03:00 +16°C° 0 mm 0 m/S 716 mmHg 77%
    04:00 +16°C° 0 mm 0 m/S 716 mmHg 77%
    05:00 +15°C° 0 mm 0 m/S 716 mmHg 78%
    06:00 +19°C° 0 mm 1 m/S 716 mmHg 71%
    07:00 +20°C° 0 mm 1 m/S 716 mmHg 65%
    08:00 +22°C° 0 mm 1 m/S 716 mmHg 58%
    09:00 +23°C° 0 mm 1 m/S 716 mmHg 51%
    10:00 +25°C° 0 mm 2 m/S 716 mmHg 45%
    11:00 +27°C° 0 mm 2 m/S 716 mmHg 38%
    12:00 +28°C° 0 mm 2 m/S 716 mmHg 36%
    13:00 +29°C° 0 mm 3 m/S 715 mmHg 34%
    14:00 +29°C° 0 mm 3 m/S 714 mmHg 32%
    15:00 +29°C° 0 mm 3 m/S 714 mmHg 33%
    16:00 +29°C° 0 mm 3 m/S 713 mmHg 34%
    17:00 +29°C° 0 mm 3 m/S 713 mmHg 36%
    18:00 +26°C° 0 mm 3 m/S 713 mmHg 44%
    19:00 +24°C° 0 mm 2 m/S 714 mmHg 52%
    20:00 +21°C° 0 mm 2 m/S 714 mmHg 61%
    21:00 +21°C° 0 mm 1 m/S 714 mmHg 66%
    22:00 +20°C° 0 mm 1 m/S 714 mmHg 71%
    23:00 +18°C° 0 mm 0 m/S 715 mmHg 77%

    28 April, Sonntag

    Zeit Temperatur Niederschläge Wind Luftdruck Luftfeuchtigkeit
    00:00 +17°C° 0 mm 0 m/S 714 mmHg 77%
    01:00 +17°C° 0 mm 0 m/S 714 mmHg 78%
    02:00 +19°C° 0 mm 1 m/S 714 mmHg 79%
    03:00 +18°C° 0 mm 1 m/S 714 mmHg 80%
    04:00 +18°C° 0 mm 1 m/S 713 mmHg 80%
    05:00 +18°C° 0 mm 1 m/S 713 mmHg 81%
    06:00 +19°C° 0 mm 1 m/S 714 mmHg 78%
    07:00 +20°C° 0 mm 1 m/S 714 mmHg 75%
    08:00 +21°C° 0 mm 1 m/S 715 mmHg 72%
    09:00 +23°C° 0 mm 1 m/S 715 mmHg 65%
    10:00 +24°C° 0 mm 2 m/S 715 mmHg 57%
    11:00 +26°C° 0 mm 2 m/S 715 mmHg 50%
    12:00 +27°C° 0 mm 3 m/S 714 mmHg 48%
    13:00 +28°C° 0 mm 3 m/S 713 mmHg 45%
    14:00 +29°C° 0 mm 3 m/S 712 mmHg 43%
    15:00 +29°C° 0 mm 3 m/S 712 mmHg 43%
    16:00 +29°C° 0 mm 2 m/S 712 mmHg 43%
    17:00 +28°C° 0 mm 2 m/S 711 mmHg 43%
    18:00 +27°C° 0 mm 2 m/S 712 mmHg 50%
    19:00 +25°C° 0 mm 2 m/S 712 mmHg 57%
    20:00 +23°C° 0 mm 2 m/S 712 mmHg 64%
    21:00 +21°C° 0 mm 2 m/S 712 mmHg 68%
    22:00 +21°C° 0 mm 2 m/S 712 mmHg 72%
    23:00 +20°C° 0 mm 2 m/S 712 mmHg 77%

    29 April, Montag

    Zeit Temperatur Niederschläge Wind Luftdruck Luftfeuchtigkeit
    00:00 +20°C° 0 mm 2 m/S 712 mmHg 78%
    01:00 +19°C° 0 mm 2 m/S 712 mmHg 79%
    02:00 +19°C° 0 mm 2 m/S 712 mmHg 81%
    03:00 +18°C° 0 mm 2 m/S 711 mmHg 81%
    04:00 +18°C° 0 mm 2 m/S 711 mmHg 82%
    05:00 +18°C° 0 mm 2 m/S 711 mmHg 83%
    06:00 +18°C° 0 mm 2 m/S 712 mmHg 81%
    07:00 +19°C° 0 mm 2 m/S 712 mmHg 78%
    08:00 +19°C° 0 mm 2 m/S 713 mmHg 76%
    09:00 +21°C° 0 mm 3 m/S 713 mmHg 70%
    10:00 +22°C° 0 mm 3 m/S 713 mmHg 64%
    11:00 +25°C° 0 mm 4 m/S 713 mmHg 58%
    12:00 +26°C° 0 mm 4 m/S 713 mmHg 55%
    13:00 +27°C° 0 mm 4 m/S 712 mmHg 52%
    14:00 +27°C° 0 mm 4 m/S 712 mmHg 49%
    15:00 +27°C° 0 mm 4 m/S 712 mmHg 50%
    16:00 +27°C° 0 mm 3 m/S 712 mmHg 50%
    17:00 +27°C° 0 mm 3 m/S 712 mmHg 51%
    18:00 +25°C° 0 mm 3 m/S 713 mmHg 57%
    19:00 +24°C° 0 mm 2 m/S 714 mmHg 63%
    20:00 +21°C° 0 mm 2 m/S 715 mmHg 69%
    21:00 +21°C° 0 mm 2 m/S 715 mmHg 72%
    22:00 +20°C° 0 mm 2 m/S 716 mmHg 75%
    23:00 +20°C° 0 mm 2 m/S 716 mmHg 77%

    30 April, Dienstag

    Zeit Temperatur Niederschläge Wind Luftdruck Luftfeuchtigkeit
    00:00 +20°C° 0.1 mm 2 m/S 716 mmHg 79%
    01:00 +20°C° 0.1 mm 2 m/S 717 mmHg 80%
    02:00 +20°C° 0.1 mm 2 m/S 717 mmHg 81%
    03:00 +20°C° 0.2 mm 3 m/S 717 mmHg 81%
    04:00 +19°C° 0.2 mm 3 m/S 718 mmHg 82%
    05:00 +19°C° 0.2 mm 4 m/S 718 mmHg 83%
    06:00 +19°C° 0.1 mm 4 m/S 719 mmHg 79%
    07:00 +18°C° 0.1 mm 4 m/S 719 mmHg 75%
    08:00 +17°C° 0.1 mm 5 m/S 720 mmHg 71%
    09:00 +18°C° 0.1 mm 4 m/S 721 mmHg 67%
    10:00 +18°C° 0.1 mm 4 m/S 721 mmHg 64%
    11:00 +18°C° 0.1 mm 4 m/S 721 mmHg 61%
    12:00 +18°C° 0.1 mm 3 m/S 721 mmHg 63%
    13:00 +18°C° 0.1 mm 3 m/S 720 mmHg 66%
    14:00 +18°C° 0.1 mm 3 m/S 719 mmHg 68%
    15:00 +18°C° 0 mm 3 m/S 719 mmHg 69%
    16:00 +18°C° 0 mm 2 m/S 719 mmHg 71%
    17:00 +19°C° 0 mm 2 m/S 719 mmHg 72%
    18:00 +19°C° 0 mm 1 m/S 719 mmHg 78%
    19:00 +16°C° 0 mm 1 m/S 719 mmHg 84%
    20:00 +14°C° 0 mm 0 m/S 719 mmHg 90%
    21:00 +14°C° 0 mm 0 m/S 719 mmHg 91%
    22:00 +14°C° 0 mm 0 m/S 719 mmHg 91%
    23:00 +15°C° 0 mm 1 m/S 719 mmHg 91%
    Mehr zeigen